{"data":{"norad_id":67658,"intl_designator":"2026-022L","name":"STARLINK-36701","alt_names":[],"object_type":"PAYLOAD","status":"ACTIVE","operator":null,"country":"US","launch_date":"2026-02-02","launch_site_code":"AFWTR","launch_vehicle":null,"mission":null,"orbit_class":"UNKNOWN","rcs_meters":null,"size_class":null,"mass_kg":null,"dimensions":null,"purposes":["comms"],"wikipedia_slug":null,"has_3d_model":false,"image_url":null,"decayed_at":null,"tle_current":{"epoch":"2026-09-19T16:54:38.512224Z","epoch_age_seconds":137646,"freshness":"FRESH","line1":"1 67658U 26022L   26262.70461241  .00012481  00000+0  38821-3 0  9997","line2":"2 67658  97.2852 294.2535 0000676  89.2049 270.9271 15.33451508 35302","mean_motion":15.33451508,"eccentricity":6.76e-5,"inclination_deg":97.2852,"raan_deg":294.2535,"arg_perigee_deg":89.2049,"mean_anomaly_deg":270.9271,"bstar":0.00038821,"rev_number":3530,"period_min":93.905806116955,"perigee_km":465.06117984654,"apogee_km":465.98644278822,"semimajor_km":6843.6608113174,"source":"CELESTRAK","updated_at":"2026-09-20T09:00:43.621103Z"}}}